Time,TemperatureF,DewpointF,PressureIn,WindDirection,WindDirectionDegrees,WindSpeedMPH,WindSpeedGustMPH,Humidity,HourlyPrecipIn,Conditions,Clouds,dailyrainin,SoftwareType,DateUTC
2013-02-26 00:03:00,23.9,9.7,29.79,East,100,0.0,0.0,54,0.00,,,0.00,VWS V14.01,2013-02-26 06:03:00,
2013-02-26 00:08:00,23.9,9.7,29.79,East,100,0.0,0.0,54,0.00,,,0.00,VWS V14.01,2013-02-26 06:08:00,
2013-02-26 00:13:00,24.1,9.9,29.79,East,100,0.0,0.0,54,0.00,,,0.00,VWS V14.01,2013-02-26 06:13:00,
2013-02-26 00:19:00,23.9,9.7,29.79,East,100,0.0,0.0,54,0.00,,,0.00,VWS V14.01,2013-02-26 06:19:00,
2013-02-26 00:24:00,23.9,9.7,29.79,East,92,2.2,4.0,54,0.00,,,0.00,VWS V14.01,2013-02-26 06:24:00,
2013-02-26 00:30:00,23.7,9.5,29.79,East,92,0.0,0.0,54,0.00,,,0.00,VWS V14.01,2013-02-26 06:30:00,
2013-02-26 00:35:00,23.5,9.4,29.79,East,92,0.0,0.0,54,0.00,,,0.00,VWS V14.01,2013-02-26 06:35:00,
2013-02-26 00:40:00,23.5,9.8,29.79,East,92,0.0,0.0,55,0.00,,,0.00,VWS V14.01,2013-02-26 06:40:00,
2013-02-26 00:46:00,23.4,9.6,29.79,East,91,0.0,0.0,55,0.00,,,0.00,VWS V14.01,2013-02-26 06:46:00,
2013-02-26 00:51:00,23.4,9.6,29.79,East,92,0.0,0.0,55,0.00,,,0.00,VWS V14.01,2013-02-26 06:51:00,
2013-02-26 00:57:00,23.4,9.6,29.76,East,92,0.0,0.0,55,0.00,,,0.00,VWS V14.01,2013-02-26 06:57:00,
2013-02-26 01:02:00,23.4,10.0,29.76,East,92,0.0,0.0,56,0.00,,,0.00,VWS V14.01,2013-02-26 07:02:00,
2013-02-26 01:07:00,23.4,10.0,29.76,East,92,0.0,0.0,56,0.00,,,0.00,VWS V14.01,2013-02-26 07:07:00,
2013-02-26 01:12:00,23.4,10.0,29.76,East,92,0.0,0.0,56,0.00,,,0.00,VWS V14.01,2013-02-26 07:12:00,
2013-02-26 01:17:00,23.2,9.8,29.76,East,92,0.0,0.0,56,0.00,,,0.00,VWS V14.01,2013-02-26 07:17:00,
2013-02-26 01:22:00,23.0,9.7,29.76,East,92,0.0,0.0,56,0.00,,,0.00,VWS V14.01,2013-02-26 07:22:00,
2013-02-26 01:27:00,23.0,10.1,29.76,East,91,0.0,0.0,57,0.00,,,0.00,VWS V14.01,2013-02-26 07:27:00,
2013-02-26 01:33:00,23.0,10.1,29.76,East,92,0.0,0.0,57,0.00,,,0.00,VWS V14.01,2013-02-26 07:33:00,
2013-02-26 01:39:00,23.2,10.2,29.73,East,89,0.0,0.0,57,0.00,,,0.00,VWS V14.01,2013-02-26 07:39:00,
2013-02-26 01:44:00,23.2,10.2,29.73,East,89,0.0,0.0,57,0.00,,,0.00,VWS V14.01,2013-02-26 07:44:00,
2013-02-26 01:50:00,23.4,10.8,29.73,East,87,0.0,0.0,58,0.00,,,0.00,VWS V14.01,2013-02-26 07:50:00,
2013-02-26 01:55:00,23.5,10.9,29.73,East,86,0.0,0.0,58,0.00,,,0.00,VWS V14.01,2013-02-26 07:55:00,
2013-02-26 02:01:00,23.7,11.5,29.73,NE,48,0.0,0.0,59,0.00,,,0.00,VWS V14.01,2013-02-26 08:01:00,
2013-02-26 02:07:00,23.9,11.7,29.73,NE,45,0.0,0.0,59,0.00,,,0.00,VWS V14.01,2013-02-26 08:07:00,
2013-02-26 02:12:00,23.9,11.7,29.73,NE,45,0.0,0.0,59,0.00,,,0.00,VWS V14.01,2013-02-26 08:12:00,
2013-02-26 02:18:00,24.1,12.2,29.73,NE,51,0.0,0.0,60,0.00,,,0.00,VWS V14.01,2013-02-26 08:18:00,
2013-02-26 02:23:00,24.3,12.4,29.76,NE,51,0.0,0.0,60,0.00,,,0.00,VWS V14.01,2013-02-26 08:23:00,
2013-02-26 02:28:00,24.3,12.4,29.76,NE,50,0.0,0.0,60,0.00,,,0.00,VWS V14.01,2013-02-26 08:28:00,
2013-02-26 02:33:00,24.3,12.4,29.76,NE,50,0.0,0.0,60,0.00,,,0.00,VWS V14.01,2013-02-26 08:33:00,
2013-02-26 02:38:00,24.3,12.4,29.76,NNE,25,2.7,3.6,60,0.00,,,0.00,VWS V14.01,2013-02-26 08:38:00,
2013-02-26 02:43:00,24.3,12.8,29.73,NNE,25,0.0,0.0,61,0.00,,,0.00,VWS V14.01,2013-02-26 08:43:00,
2013-02-26 02:49:00,24.3,13.1,29.73,NNE,18,0.0,3.1,62,0.00,,,0.00,VWS V14.01,2013-02-26 08:49:00,
2013-02-26 02:54:00,24.3,13.9,29.73,NNE,17,4.0,4.9,64,0.00,,,0.00,VWS V14.01,2013-02-26 08:54:00,
2013-02-26 02:59:00,24.3,14.6,29.73,NNE,30,3.1,4.5,66,0.00,,,0.00,VWS V14.01,2013-02-26 08:59:00,
2013-02-26 03:04:00,24.1,14.7,29.73,NNE,19,2.7,2.7,67,0.00,,,0.00,VWS V14.01,2013-02-26 09:04:00,
2013-02-26 03:10:00,23.9,14.9,29.70,North,11,2.2,3.6,68,0.00,,,0.00,VWS V14.01,2013-02-26 09:10:00,
2013-02-26 03:15:00,23.7,15.1,29.70,NNE,22,0.0,0.0,69,0.00,,,0.00,VWS V14.01,2013-02-26 09:15:00,
2013-02-26 03:20:00,23.7,15.1,29.70,NNE,27,0.0,0.0,69,0.00,,,0.00,VWS V14.01,2013-02-26 09:20:00,
2013-02-26 03:25:00,23.5,15.2,29.70,North,10,0.0,2.7,70,0.00,,,0.00,VWS V14.01,2013-02-26 09:25:00,
2013-02-26 03:30:00,23.5,15.2,29.70,North,11,0.0,0.0,70,0.00,,,0.00,VWS V14.01,2013-02-26 09:30:00,
2013-02-26 03:35:00,23.5,15.5,29.70,NNE,18,0.0,0.0,71,0.00,,,0.00,VWS V14.01,2013-02-26 09:35:00,
2013-02-26 03:41:00,23.5,15.5,29.70,NNE,15,0.0,0.0,71,0.00,,,0.00,VWS V14.01,2013-02-26 09:41:00,
2013-02-26 03:46:00,23.4,15.4,29.70,NNE,21,0.0,0.0,71,0.00,,,0.00,VWS V14.01,2013-02-26 09:46:00,
2013-02-26 03:52:00,23.4,15.4,29.70,NNE,16,0.0,0.0,71,0.00,,,0.00,VWS V14.01,2013-02-26 09:52:00,
2013-02-26 03:57:00,23.4,15.7,29.70,NNE,24,0.0,0.0,72,0.00,,,0.00,VWS V14.01,2013-02-26 09:57:00,
2013-02-26 04:02:00,23.4,15.7,29.70,NNE,26,0.0,0.0,72,0.00,,,0.00,VWS V14.01,2013-02-26 10:02:00,
2013-02-26 04:07:00,23.4,16.0,29.70,NNE,22,0.0,0.0,73,0.00,,,0.00,VWS V14.01,2013-02-26 10:07:00,
2013-02-26 04:13:00,23.4,16.0,29.70,NE,37,3.6,3.6,73,0.00,,,0.00,VWS V14.01,2013-02-26 10:13:00,
2013-02-26 04:18:00,23.4,16.3,29.70,NNE,28,0.0,0.0,74,0.00,,,0.00,VWS V14.01,2013-02-26 10:18:00,
2013-02-26 04:24:00,23.4,16.3,29.67,NNE,25,0.0,2.2,74,0.00,,,0.00,VWS V14.01,2013-02-26 10:24:00,
2013-02-26 04:30:00,23.4,16.6,29.67,NNE,18,4.0,4.0,75,0.00,,,0.00,VWS V14.01,2013-02-26 10:30:00,
2013-02-26 04:35:00,23.4,16.6,29.67,NNE,33,0.0,0.0,75,0.00,,,0.00,VWS V14.01,2013-02-26 10:35:00,
2013-02-26 04:41:00,23.5,17.1,29.67,NNE,24,0.0,0.0,76,0.00,,,0.00,VWS V14.01,2013-02-26 10:41:00,
2013-02-26 04:46:00,23.5,17.1,29.67,NNE,17,0.0,2.7,76,0.00,,,0.00,VWS V14.01,2013-02-26 10:46:00,
2013-02-26 04:52:00,23.9,17.5,29.67,NE,42,0.0,0.0,76,0.00,,,0.00,VWS V14.01,2013-02-26 10:52:00,
2013-02-26 04:57:00,24.1,17.9,29.67,ENE,65,0.0,3.1,77,0.00,,,0.00,VWS V14.01,2013-02-26 10:57:00,
2013-02-26 05:02:00,24.3,18.1,29.67,ENE,75,0.0,0.0,77,0.00,,CLR,0.00,VWS V14.01,2013-02-26 11:02:00,
2013-02-26 05:08:00,24.4,18.3,29.67,ENE,61,0.0,2.2,77,0.00,,CLR,0.00,VWS V14.01,2013-02-26 11:08:00,
2013-02-26 05:13:00,24.6,18.5,29.67,NE,55,0.0,0.0,77,0.00,,CLR,0.00,VWS V14.01,2013-02-26 11:13:00,
2013-02-26 05:19:00,24.8,18.6,29.67,ENE,76,0.0,0.0,77,0.00,,CLR,0.00,VWS V14.01,2013-02-26 11:19:00,
2013-02-26 05:24:00,25.0,18.8,29.67,ENE,59,0.0,0.0,77,0.00,,CLR,0.00,VWS V14.01,2013-02-26 11:24:00,
2013-02-26 05:30:00,25.2,19.0,29.67,East,87,2.7,3.6,77,0.00,,CLR,0.00,VWS V14.01,2013-02-26 11:30:00,
2013-02-26 05:35:00,25.2,19.0,29.67,NE,41,0.0,0.0,77,0.00,,CLR,0.00,VWS V14.01,2013-02-26 11:35:00,
2013-02-26 05:40:00,25.0,18.8,29.67,North,8,0.0,3.6,77,0.00,,CLR,0.00,VWS V14.01,2013-02-26 11:40:00,
2013-02-26 05:45:00,25.0,18.8,29.67,NNE,29,2.7,5.4,77,0.00,,CLR,0.00,VWS V14.01,2013-02-26 11:45:00,
2013-02-26 05:51:00,24.8,18.9,29.67,NNE,33,0.0,4.9,78,0.00,,CLR,0.00,VWS V14.01,2013-02-26 11:51:00,
2013-02-26 05:56:00,25.0,19.1,29.67,NNE,31,3.1,4.9,78,0.00,,CLR,0.00,VWS V14.01,2013-02-26 11:56:00,
2013-02-26 06:01:00,25.0,19.1,29.67,NNE,31,0.0,0.0,78,0.00,,CLR,0.00,VWS V14.01,2013-02-26 12:01:00,
2013-02-26 06:07:00,25.2,19.3,29.67,NE,38,0.0,0.0,78,0.00,,CLR,0.00,VWS V14.01,2013-02-26 12:07:00,
2013-02-26 06:12:00,25.2,19.3,29.67,NE,36,0.0,0.0,78,0.00,,CLR,0.00,VWS V14.01,2013-02-26 12:12:00,
2013-02-26 06:18:00,25.3,19.8,29.67,NE,50,0.0,0.0,79,0.00,,CLR,0.00,VWS V14.01,2013-02-26 12:18:00,
2013-02-26 06:23:00,25.3,19.8,29.67,NE,46,2.7,4.0,79,0.00,,CLR,0.00,VWS V14.01,2013-02-26 12:23:00,
2013-02-26 06:28:00,25.3,19.8,29.67,NNE,21,0.0,4.9,79,0.00,,CLR,0.00,VWS V14.01,2013-02-26 12:28:00,
2013-02-26 06:33:00,25.5,19.9,29.67,North,5,0.0,0.0,79,0.00,,CLR,0.00,VWS V14.01,2013-02-26 12:33:00,
2013-02-26 06:38:00,25.7,20.1,29.67,NE,48,3.1,3.1,79,0.00,,CLR,0.00,VWS V14.01,2013-02-26 12:38:00,
2013-02-26 06:44:00,25.7,20.1,29.64,NE,51,0.0,0.0,79,0.00,,CLR,0.00,VWS V14.01,2013-02-26 12:44:00,
2013-02-26 06:49:00,25.9,20.3,29.64,NNE,21,3.1,3.1,79,0.00,,CLR,0.00,VWS V14.01,2013-02-26 12:49:00,
2013-02-26 06:54:00,26.1,20.5,29.64,NE,49,3.1,3.1,79,0.00,,CLR,0.00,VWS V14.01,2013-02-26 12:54:00,
2013-02-26 07:05:00,26.4,21.1,29.64,NE,36,2.7,2.7,80,0.00,,CLR,0.00,VWS V14.01,2013-02-26 13:05:00,
2013-02-26 07:11:00,26.6,21.3,29.64,NNE,30,4.0,4.0,80,0.00,,CLR,0.00,VWS V14.01,2013-02-26 13:11:00,
2013-02-26 07:17:00,26.8,21.1,29.64,NE,54,3.6,3.6,79,0.00,,CLR,0.00,VWS V14.01,2013-02-26 13:17:00,
2013-02-26 07:22:00,27.0,21.3,29.64,NE,37,3.1,5.4,79,0.00,,CLR,0.00,VWS V14.01,2013-02-26 13:22:00,
2013-02-26 07:27:00,27.1,21.5,29.64,NE,38,2.7,6.3,79,0.00,,CLR,0.00,VWS V14.01,2013-02-26 13:27:00,
2013-02-26 07:33:00,27.3,21.7,29.64,NNE,17,2.2,4.0,79,0.00,,CLR,0.00,VWS V14.01,2013-02-26 13:33:00,
2013-02-26 07:38:00,27.5,21.9,29.64,NE,34,3.1,7.6,79,0.00,,CLR,0.00,VWS V14.01,2013-02-26 13:38:00,
2013-02-26 07:44:00,27.5,21.5,29.64,ENE,58,3.1,5.4,78,0.00,,CLR,0.00,VWS V14.01,2013-02-26 13:44:00,
2013-02-26 07:49:00,27.5,21.2,29.64,NE,38,0.0,0.0,77,0.00,,CLR,0.00,VWS V14.01,2013-02-26 13:49:00,
2013-02-26 07:55:00,27.7,21.4,29.64,ENE,61,0.0,5.4,77,0.00,,CLR,0.00,VWS V14.01,2013-02-26 13:55:00,
2013-02-26 08:01:00,27.9,21.6,29.64,ENE,63,0.0,3.1,77,0.00,,CLR,0.00,VWS V14.01,2013-02-26 14:01:00,
2013-02-26 08:06:00,28.2,22.0,29.64,ENE,60,3.1,4.9,77,0.00,,CLR,0.00,VWS V14.01,2013-02-26 14:06:00,
2013-02-26 08:12:00,28.6,22.0,29.64,NE,53,2.2,4.0,76,0.00,,CLR,0.00,VWS V14.01,2013-02-26 14:12:00,
2013-02-26 08:17:00,28.8,22.2,29.64,NE,49,2.7,5.8,76,0.00,,CLR,0.00,VWS V14.01,2013-02-26 14:17:00,
2013-02-26 08:23:00,29.1,22.2,29.64,ENE,64,2.7,3.6,75,0.00,,CLR,0.00,VWS V14.01,2013-02-26 14:23:00,
2013-02-26 08:29:00,29.5,22.2,29.64,East,87,4.5,5.4,74,0.00,,CLR,0.00,VWS V14.01,2013-02-26 14:29:00,
2013-02-26 08:34:00,29.7,22.4,29.64,NE,42,3.1,4.0,74,0.00,,CLR,0.00,VWS V14.01,2013-02-26 14:34:00,
2013-02-26 08:40:00,30.0,22.4,29.64,NE,50,0.0,2.7,73,0.00,,CLR,0.00,VWS V14.01,2013-02-26 14:40:00,
2013-02-26 08:45:00,30.4,22.5,29.64,ENE,67,0.0,3.6,72,0.00,,CLR,0.00,VWS V14.01,2013-02-26 14:45:00,
2013-02-26 08:50:00,30.7,22.1,29.64,North,11,3.6,8.7,70,0.00,,CLR,0.00,VWS V14.01,2013-02-26 14:50:00,
2013-02-26 08:55:00,30.9,20.9,29.64,ENE,69,2.7,3.1,66,0.00,,CLR,0.00,VWS V14.01,2013-02-26 14:55:00,
2013-02-26 09:00:00,31.1,19.6,29.64,NE,40,0.0,5.8,62,0.00,,CLR,0.00,VWS V14.01,2013-02-26 15:00:00,
2013-02-26 09:06:00,31.3,18.2,29.64,NE,51,5.8,5.8,58,0.00,,CLR,0.00,VWS V14.01,2013-02-26 15:06:00,
2013-02-26 09:11:00,31.6,17.8,29.61,NE,48,0.0,3.6,56,0.00,,CLR,0.00,VWS V14.01,2013-02-26 15:11:00,
2013-02-26 09:16:00,31.8,17.9,29.61,ENE,74,2.7,4.0,56,0.00,,CLR,0.00,VWS V14.01,2013-02-26 15:16:00,
2013-02-26 09:22:00,32.2,17.8,29.61,NE,50,0.0,4.0,55,0.00,,CLR,0.00,VWS V14.01,2013-02-26 15:22:00,
2013-02-26 09:27:00,32.4,17.1,29.61,ENE,67,2.7,8.7,53,0.00,,CLR,0.00,VWS V14.01,2013-02-26 15:27:00,
2013-02-26 09:33:00,32.5,16.4,29.61,ENE,63,6.3,6.3,51,0.00,,CLR,0.00,VWS V14.01,2013-02-26 15:33:00,
2013-02-26 09:38:00,32.5,15.5,29.61,ENE,59,3.1,5.4,49,0.00,,CLR,0.00,VWS V14.01,2013-02-26 15:38:00,
2013-02-26 09:44:00,32.7,15.2,29.61,NNE,27,5.4,8.7,48,0.00,,CLR,0.00,VWS V14.01,2013-02-26 15:44:00,
2013-02-26 09:49:00,32.7,14.7,29.61,ENE,60,4.5,5.4,47,0.00,,CLR,0.00,VWS V14.01,2013-02-26 15:49:00,
2013-02-26 09:54:00,32.9,14.4,29.61,NE,41,3.1,6.3,46,0.00,,CLR,0.00,VWS V14.01,2013-02-26 15:54:00,
2013-02-26 10:00:00,33.1,14.6,29.61,NE,35,8.3,8.3,46,0.00,,CLR,0.00,VWS V14.01,2013-02-26 16:00:00,
2013-02-26 10:05:00,33.4,14.9,29.61,North,357,3.6,5.4,46,0.00,,CLR,0.00,VWS V14.01,2013-02-26 16:05:00,
2013-02-26 10:11:00,33.8,14.2,29.58,NE,49,5.8,5.8,44,0.00,,CLR,0.00,VWS V14.01,2013-02-26 16:11:00,
2013-02-26 10:16:00,34.0,13.9,29.58,ENE,60,5.4,5.8,43,0.00,,CLR,0.00,VWS V14.01,2013-02-26 16:16:00,
2013-02-26 10:22:00,34.0,13.3,29.58,ENE,62,5.4,7.6,42,0.00,,CLR,0.00,VWS V14.01,2013-02-26 16:22:00,
2013-02-26 10:28:00,33.8,12.6,29.58,NE,42,5.4,6.3,41,0.00,,CLR,0.00,VWS V14.01,2013-02-26 16:28:00,
2013-02-26 10:33:00,33.8,12.6,29.58,East,84,7.6,7.6,41,0.00,,CLR,0.00,VWS V14.01,2013-02-26 16:33:00,
2013-02-26 10:39:00,33.8,12.6,29.55,ENE,71,6.3,6.3,41,0.00,,CLR,0.00,VWS V14.01,2013-02-26 16:39:00,
2013-02-26 10:44:00,34.2,12.9,29.55,NE,43,5.4,7.6,41,0.00,,CLR,0.00,VWS V14.01,2013-02-26 16:44:00,
2013-02-26 10:49:00,34.3,13.1,29.55,ENE,62,6.3,11.0,41,0.00,,CLR,0.00,VWS V14.01,2013-02-26 16:49:00,
2013-02-26 10:54:00,34.3,13.1,29.55,NE,40,5.4,5.8,41,0.00,,CLR,0.00,VWS V14.01,2013-02-26 16:54:00,
2013-02-26 10:59:00,34.2,12.9,29.55,East,99,4.9,9.2,41,0.00,,CLR,0.00,VWS V14.01,2013-02-26 16:59:00,
2013-02-26 11:04:00,34.0,12.2,29.55,NNE,33,10.1,10.1,40,0.00,,CLR,0.00,VWS V14.01,2013-02-26 17:04:00,
2013-02-26 11:09:00,34.0,12.2,29.55,NE,44,6.3,8.3,40,0.00,,CLR,0.00,VWS V14.01,2013-02-26 17:09:00,
2013-02-26 11:15:00,34.0,12.8,29.55,ENE,60,8.1,8.1,41,0.00,,CLR,0.00,VWS V14.01,2013-02-26 17:15:00,
2013-02-26 11:20:00,34.0,12.2,29.55,NNE,15,6.3,7.6,40,0.00,,CLR,0.00,VWS V14.01,2013-02-26 17:20:00,
2013-02-26 11:25:00,34.2,12.4,29.55,NNE,27,5.8,8.1,40,0.00,,CLR,0.00,VWS V14.01,2013-02-26 17:25:00,
2013-02-26 11:31:00,34.3,12.5,29.55,NNE,27,4.0,8.1,40,0.00,,CLR,0.00,VWS V14.01,2013-02-26 17:31:00,
2013-02-26 11:36:00,34.0,12.2,29.55,NE,35,6.3,11.0,40,0.00,,CLR,0.00,VWS V14.01,2013-02-26 17:36:00,
2013-02-26 11:42:00,34.2,12.4,29.55,NE,42,5.8,11.0,40,0.00,,CLR,0.00,VWS V14.01,2013-02-26 17:42:00,
2013-02-26 11:47:00,34.0,12.2,29.55,NE,54,7.2,8.3,40,0.00,,CLR,0.00,VWS V14.01,2013-02-26 17:47:00,
2013-02-26 11:53:00,33.8,12.1,29.55,NE,35,5.4,8.1,40,0.00,,CLR,0.00,VWS V14.01,2013-02-26 17:53:00,
2013-02-26 11:58:00,33.8,12.1,29.55,NE,34,6.7,11.9,40,0.00,,CLR,0.00,VWS V14.01,2013-02-26 17:58:00,
2013-02-26 12:03:00,34.3,12.5,29.55,East,99,8.1,10.5,40,0.00,,FEW022,0.00,VWS V14.01,2013-02-26 18:03:00,
2013-02-26 12:08:00,34.5,12.7,29.55,NE,49,5.4,11.0,40,0.00,,FEW022,0.00,VWS V14.01,2013-02-26 18:08:00,
2013-02-26 12:13:00,34.5,12.7,29.52,NNE,21,6.3,9.6,40,0.00,,FEW022,0.00,VWS V14.01,2013-02-26 18:13:00,
2013-02-26 12:19:00,34.5,12.7,29.52,NE,34,8.7,9.2,40,0.00,,FEW022,0.00,VWS V14.01,2013-02-26 18:19:00,
2013-02-26 12:24:00,34.3,12.5,29.52,NE,37,7.6,11.0,40,0.00,,FEW022,0.00,VWS V14.01,2013-02-26 18:24:00,
2013-02-26 12:29:00,34.2,12.4,29.52,NNE,25,6.3,12.3,40,0.00,,FEW022,0.00,VWS V14.01,2013-02-26 18:29:00,
2013-02-26 12:34:00,34.0,12.2,29.52,NNE,33,8.1,10.5,40,0.00,,FEW022,0.00,VWS V14.01,2013-02-26 18:34:00,
2013-02-26 12:40:00,34.5,12.7,29.52,NNE,30,10.5,16.3,40,0.00,,FEW022,0.00,VWS V14.01,2013-02-26 18:40:00,
2013-02-26 12:45:00,34.5,12.7,29.52,NE,41,11.0,11.0,40,0.00,,FEW022,0.00,VWS V14.01,2013-02-26 18:45:00,
2013-02-26 12:51:00,34.9,12.4,29.52,ENE,78,12.8,18.3,39,0.00,,FEW022,0.00,VWS V14.01,2013-02-26 18:51:00,
2013-02-26 12:56:00,34.7,12.3,29.52,NNE,12,10.1,12.8,39,0.00,,FEW022,0.00,VWS V14.01,2013-02-26 18:56:00,
2013-02-26 13:03:00,34.0,12.2,29.52,NNE,18,20.1,20.1,40,0.00,,CLR,0.00,VWS V14.01,2013-02-26 19:03:00,
2013-02-26 13:08:00,33.6,12.4,29.52,NNE,23,14.5,14.5,41,0.00,,CLR,0.00,VWS V14.01,2013-02-26 19:08:00,
2013-02-26 13:13:00,33.6,12.4,29.52,NNE,21,19.7,19.7,41,0.00,,CLR,0.00,VWS V14.01,2013-02-26 19:13:00,
2013-02-26 13:18:00,33.4,12.3,29.52,NNE,17,11.9,11.9,41,0.00,,CLR,0.00,VWS V14.01,2013-02-26 19:18:00,
2013-02-26 13:23:00,33.4,12.3,29.49,NNE,19,8.3,15.4,41,0.00,,CLR,0.00,VWS V14.01,2013-02-26 19:23:00,
2013-02-26 13:29:00,33.6,13.0,29.49,NNE,24,13.2,13.2,42,0.00,,CLR,0.00,VWS V14.01,2013-02-26 19:29:00,
2013-02-26 13:34:00,33.6,13.0,29.49,North,10,7.6,10.1,42,0.00,,CLR,0.00,VWS V14.01,2013-02-26 19:34:00,
2013-02-26 13:39:00,33.3,12.7,29.49,NE,34,8.7,12.8,42,0.00,,CLR,0.00,VWS V14.01,2013-02-26 19:39:00,
2013-02-26 13:45:00,33.1,13.0,29.49,NE,52,12.8,18.8,43,0.00,,CLR,0.00,VWS V14.01,2013-02-26 19:45:00,
2013-02-26 13:51:00,32.9,12.9,29.49,NNE,18,13.2,17.0,43,0.00,,CLR,0.00,VWS V14.01,2013-02-26 19:51:00,
2013-02-26 13:56:00,32.9,12.9,29.49,NE,40,5.8,10.5,43,0.00,,CLR,0.00,VWS V14.01,2013-02-26 19:56:00,
2013-02-26 14:02:00,32.7,13.2,29.49,NNE,26,8.3,8.3,44,0.00,,BKN021,0.00,VWS V14.01,2013-02-26 20:02:00,
2013-02-26 14:07:00,32.7,13.2,29.49,NNE,24,5.4,10.5,44,0.00,,BKN021,0.00,VWS V14.01,2013-02-26 20:07:00,
2013-02-26 14:13:00,32.5,12.5,29.49,NNE,30,8.7,14.1,43,0.00,,BKN021,0.00,VWS V14.01,2013-02-26 20:13:00,
2013-02-26 14:18:00,32.7,12.7,29.49,NE,34,17.4,17.4,43,0.00,,BKN021,0.00,VWS V14.01,2013-02-26 20:18:00,
2013-02-26 14:23:00,32.7,12.7,29.49,NNE,28,5.4,11.0,43,0.00,,BKN021,0.00,VWS V14.01,2013-02-26 20:23:00,
2013-02-26 14:29:00,32.7,12.7,29.49,NNE,18,10.1,15.9,43,0.00,,BKN021,0.00,VWS V14.01,2013-02-26 20:29:00,
2013-02-26 14:34:00,32.7,12.7,29.49,NNE,12,6.3,15.4,43,0.00,,BKN021,0.00,VWS V14.01,2013-02-26 20:34:00,
2013-02-26 14:39:00,32.7,12.7,29.49,NE,46,8.3,24.6,43,0.00,,BKN021,0.00,VWS V14.01,2013-02-26 20:39:00,
2013-02-26 14:45:00,32.7,13.2,29.49,North,11,14.5,14.5,44,0.00,,BKN021,0.00,VWS V14.01,2013-02-26 20:45:00,
2013-02-26 14:51:00,32.5,13.1,29.49,East,98,11.0,12.8,44,0.00,,BKN021,0.00,VWS V14.01,2013-02-26 20:51:00,
2013-02-26 14:56:00,32.5,13.1,29.49,NE,36,12.3,13.2,44,0.00,,BKN021,0.00,VWS V14.01,2013-02-26 20:56:00,
2013-02-26 15:02:00,32.7,13.2,29.49,North,8,11.4,20.6,44,0.00,,OVC021,0.00,VWS V14.01,2013-02-26 21:02:00,
2013-02-26 15:07:00,32.7,13.7,29.49,NNE,13,8.7,13.2,45,0.00,,OVC021,0.00,VWS V14.01,2013-02-26 21:07:00,
2013-02-26 15:12:00,32.5,13.6,29.49,NNE,29,15.0,16.8,45,0.00,,OVC021,0.00,VWS V14.01,2013-02-26 21:12:00,
2013-02-26 15:17:00,32.4,13.9,29.49,NNE,14,15.0,15.4,46,0.00,,OVC021,0.00,VWS V14.01,2013-02-26 21:17:00,
2013-02-26 15:23:00,32.2,14.7,29.49,North,3,15.0,15.4,48,0.00,,OVC021,0.00,VWS V14.01,2013-02-26 21:23:00,
2013-02-26 15:29:00,32.2,15.6,29.49,North,3,13.2,13.2,50,0.00,,OVC021,0.00,VWS V14.01,2013-02-26 21:29:00,
2013-02-26 15:34:00,32.0,15.9,29.49,NNE,15,8.7,19.7,51,0.00,,OVC021,0.00,VWS V14.01,2013-02-26 21:34:00,
2013-02-26 15:40:00,31.8,15.8,29.49,NNE,15,12.8,22.8,51,0.00,,OVC021,0.00,VWS V14.01,2013-02-26 21:40:00,
2013-02-26 15:45:00,31.8,15.8,29.49,North,353,8.7,23.7,51,0.00,,OVC021,0.00,VWS V14.01,2013-02-26 21:45:00,
2013-02-26 15:50:00,31.6,16.0,29.49,North,0,15.9,20.6,52,0.00,,OVC021,0.00,VWS V14.01,2013-02-26 21:50:00,
2013-02-26 15:55:00,31.6,16.0,29.46,NNE,14,17.0,17.0,52,0.00,,OVC021,0.00,VWS V14.01,2013-02-26 21:55:00,
2013-02-26 16:01:00,31.5,16.3,29.46,NNE,19,9.2,15.4,53,0.00,,OVC021,0.00,VWS V14.01,2013-02-26 22:01:00,
2013-02-26 16:06:00,31.5,16.3,29.46,NNE,20,5.8,11.4,53,0.00,,OVC021,0.00,VWS V14.01,2013-02-26 22:06:00,
2013-02-26 16:12:00,31.5,16.8,29.49,North,9,10.1,10.5,54,0.00,,OVC021,0.00,VWS V14.01,2013-02-26 22:12:00,
2013-02-26 16:18:00,31.5,16.8,29.49,NNE,24,8.7,17.4,54,0.00,,OVC021,0.00,VWS V14.01,2013-02-26 22:18:00,
2013-02-26 16:23:00,31.5,17.2,29.49,NNE,25,11.0,15.4,55,0.00,,OVC021,0.00,VWS V14.01,2013-02-26 22:23:00,
2013-02-26 16:28:00,31.5,17.2,29.49,NNE,22,6.3,14.1,55,0.00,,OVC021,0.00,VWS V14.01,2013-02-26 22:28:00,
2013-02-26 16:33:00,31.3,17.0,29.49,NE,54,7.2,15.4,55,0.00,,OVC021,0.00,VWS V14.01,2013-02-26 22:33:00,
2013-02-26 16:38:00,31.3,17.4,29.46,North,5,8.1,15.4,56,0.00,,OVC021,0.00,VWS V14.01,2013-02-26 22:38:00,
2013-02-26 16:43:00,31.3,17.4,29.46,NNE,32,6.7,20.6,56,0.00,,OVC021,0.00,VWS V14.01,2013-02-26 22:43:00,
2013-02-26 16:48:00,31.3,17.8,29.46,North,3,13.2,15.0,57,0.00,,OVC021,0.00,VWS V14.01,2013-02-26 22:48:00,
2013-02-26 16:54:00,31.3,17.8,29.46,North,4,14.1,18.3,57,0.00,,OVC021,0.00,VWS V14.01,2013-02-26 22:54:00,
2013-02-26 16:59:00,31.3,18.2,29.46,NNE,19,14.1,14.1,58,0.00,,OVC021,0.00,VWS V14.01,2013-02-26 22:59:00,
2013-02-26 17:04:00,31.3,18.2,29.46,NNE,14,15.4,21.5,58,0.00,,OVC019,0.00,VWS V14.01,2013-02-26 23:04:00,
2013-02-26 17:10:00,31.3,18.2,29.46,NNE,20,16.8,16.8,58,0.00,,OVC019,0.00,VWS V14.01,2013-02-26 23:10:00,
2013-02-26 17:15:00,31.3,18.6,29.46,NNE,14,12.8,15.4,59,0.00,,OVC019,0.00,VWS V14.01,2013-02-26 23:15:00,
2013-02-26 17:21:00,31.3,18.6,29.46,North,4,7.6,11.0,59,0.00,,OVC019,0.00,VWS V14.01,2013-02-26 23:21:00,
2013-02-26 17:26:00,31.1,17.7,29.46,North,353,14.5,18.8,57,0.00,,OVC019,0.00,VWS V14.01,2013-02-26 23:26:00,
2013-02-26 17:32:00,31.1,17.7,29.46,NNE,16,19.2,21.9,57,0.00,,OVC019,0.00,VWS V14.01,2013-02-26 23:32:00,
2013-02-26 17:37:00,31.1,17.7,29.46,North,5,13.6,17.0,57,0.00,,OVC019,0.00,VWS V14.01,2013-02-26 23:37:00,
2013-02-26 17:43:00,31.1,17.2,29.46,NNE,13,15.9,17.4,56,0.00,,OVC019,0.00,VWS V14.01,2013-02-26 23:43:00,
2013-02-26 17:48:00,31.1,17.2,29.46,NE,37,15.0,17.4,56,0.00,,OVC019,0.00,VWS V14.01,2013-02-26 23:48:00,
2013-02-26 17:53:00,31.1,17.2,29.46,NNE,23,12.3,12.3,56,0.00,,OVC019,0.00,VWS V14.01,2013-02-26 23:53:00,
2013-02-26 17:59:00,30.9,17.5,29.46,North,5,20.1,21.5,57,0.00,,OVC019,0.00,VWS V14.01,2013-02-26 23:59:00,
2013-02-26 18:04:00,30.7,17.3,29.46,North,3,10.1,10.1,57,0.00,,OVC021,0.00,VWS V14.01,2013-02-27 00:04:00,
2013-02-26 18:09:00,30.7,17.3,29.46,North,5,14.1,17.4,57,0.00,,OVC021,0.00,VWS V14.01,2013-02-27 00:09:00,
2013-02-26 18:14:00,30.7,17.7,29.46,North,4,18.3,22.4,58,0.00,,OVC021,0.00,VWS V14.01,2013-02-27 00:14:00,
2013-02-26 18:19:00,30.7,17.7,29.46,NNE,19,22.8,22.8,58,0.00,,OVC021,0.00,VWS V14.01,2013-02-27 00:19:00,
2013-02-26 18:25:00,30.6,18.0,29.46,North,5,16.3,16.3,59,0.00,,OVC021,0.00,VWS V14.01,2013-02-27 00:25:00,
2013-02-26 18:30:00,30.4,18.6,29.46,NNE,27,21.0,21.0,61,0.00,,OVC021,0.00,VWS V14.01,2013-02-27 00:30:00,
2013-02-26 18:35:00,30.2,19.5,29.46,North,11,11.9,15.9,64,0.00,,OVC021,0.00,VWS V14.01,2013-02-27 00:35:00,
2013-02-26 18:40:00,30.0,20.4,29.46,North,357,12.3,12.3,67,0.00,,OVC021,0.00,VWS V14.01,2013-02-27 00:40:00,
2013-02-26 18:46:00,29.8,21.3,29.46,NNE,31,11.0,14.1,70,0.00,,OVC021,0.00,VWS V14.01,2013-02-27 00:46:00,
2013-02-26 18:52:00,29.7,22.1,29.46,NE,39,15.4,15.4,73,0.00,,OVC021,0.00,VWS V14.01,2013-02-27 00:52:00,
2013-02-26 18:57:00,29.7,22.4,29.46,North,0,11.0,17.4,74,0.00,,OVC021,0.00,VWS V14.01,2013-02-27 00:57:00,
2013-02-26 19:02:00,29.7,22.7,29.46,North,9,15.0,17.4,75,0.00,,,0.00,VWS V14.01,2013-02-27 01:02:00,
2013-02-26 19:07:00,29.5,23.2,29.46,NNE,14,12.3,22.4,77,0.00,,,0.00,VWS V14.01,2013-02-27 01:07:00,
2013-02-26 19:13:00,29.5,23.8,29.46,North,4,8.3,17.0,79,0.00,,,0.00,VWS V14.01,2013-02-27 01:13:00,
2013-02-26 19:18:00,29.5,24.1,29.46,NE,50,15.0,15.0,80,0.00,,,0.00,VWS V14.01,2013-02-27 01:18:00,
2013-02-26 19:24:00,29.3,24.5,29.46,NNE,29,9.6,12.8,82,0.00,,,0.00,VWS V14.01,2013-02-27 01:24:00,
2013-02-26 19:29:00,29.3,25.1,29.46,NNE,24,11.0,14.5,84,0.00,,,0.00,VWS V14.01,2013-02-27 01:29:00,
2013-02-26 19:34:00,29.3,25.4,29.46,NNE,24,7.6,13.2,85,0.00,,,0.00,VWS V14.01,2013-02-27 01:34:00,
2013-02-26 19:39:00,29.1,25.5,29.46,NE,46,7.6,12.8,86,0.00,,,0.00,VWS V14.01,2013-02-27 01:39:00,
2013-02-26 19:45:00,29.1,25.7,29.46,NNE,12,8.7,10.1,87,0.00,,,0.00,VWS V14.01,2013-02-27 01:45:00,
2013-02-26 19:50:00,29.1,25.7,29.46,NNE,33,13.2,14.5,87,0.00,,,0.00,VWS V14.01,2013-02-27 01:50:00,
2013-02-26 19:56:00,29.1,26.0,29.46,North,6,11.4,11.9,88,0.00,,,0.00,VWS V14.01,2013-02-27 01:56:00,
2013-02-26 20:01:00,29.1,26.0,29.46,NNE,14,9.6,12.8,88,0.00,,,0.00,VWS V14.01,2013-02-27 02:01:00,
2013-02-26 20:07:00,29.1,26.3,29.46,NE,39,10.1,11.0,89,0.00,,,0.00,VWS V14.01,2013-02-27 02:07:00,
2013-02-26 20:12:00,29.1,26.3,29.46,NNE,21,15.0,15.0,89,0.00,,,0.00,VWS V14.01,2013-02-27 02:12:00,
2013-02-26 20:17:00,28.9,26.1,29.46,North,9,13.2,17.4,89,0.00,,,0.00,VWS V14.01,2013-02-27 02:17:00,
2013-02-26 20:24:00,28.8,25.9,29.46,NNE,12,11.0,11.4,89,0.00,,,0.00,VWS V14.01,2013-02-27 02:24:00,
2013-02-26 20:30:00,28.8,25.9,29.46,NNE,19,13.2,15.0,89,0.00,,,0.00,VWS V14.01,2013-02-27 02:30:00,
2013-02-26 20:35:00,28.8,25.9,29.46,North,353,11.0,22.8,89,0.00,,,0.00,VWS V14.01,2013-02-27 02:35:00,
2013-02-26 20:41:00,28.6,25.8,29.46,NE,44,8.7,13.2,89,0.00,,,0.00,VWS V14.01,2013-02-27 02:41:00,
2013-02-26 20:46:00,28.6,25.8,29.46,NNE,32,7.6,17.0,89,0.00,,,0.00,VWS V14.01,2013-02-27 02:46:00,
2013-02-26 20:51:00,28.6,25.8,29.46,North,11,11.9,11.9,89,0.00,,,0.00,VWS V14.01,2013-02-27 02:51:00,
2013-02-26 20:56:00,28.6,25.8,29.46,North,11,11.9,13.2,89,0.00,,,0.00,VWS V14.01,2013-02-27 02:56:00,
2013-02-26 21:02:00,28.6,25.8,29.46,NNE,17,10.1,13.2,89,0.00,,,0.00,VWS V14.01,2013-02-27 03:02:00,
2013-02-26 21:07:00,28.6,26.0,29.46,NNE,15,10.5,15.4,90,0.00,,,0.00,VWS V14.01,2013-02-27 03:07:00,
2013-02-26 21:13:00,28.6,26.0,29.46,NNE,27,8.3,15.4,90,0.00,,,0.00,VWS V14.01,2013-02-27 03:13:00,
2013-02-26 21:18:00,28.6,26.0,29.46,NNE,31,15.0,15.0,90,0.00,,,0.00,VWS V14.01,2013-02-27 03:18:00,
2013-02-26 21:24:00,28.4,25.9,29.43,NNE,31,11.0,12.8,90,0.00,,,0.00,VWS V14.01,2013-02-27 03:24:00,
2013-02-26 21:29:00,28.4,25.9,29.43,North,7,10.1,13.6,90,0.00,,,0.00,VWS V14.01,2013-02-27 03:29:00,
2013-02-26 21:34:00,28.4,25.9,29.43,NNE,13,8.7,10.1,90,0.00,,,0.00,VWS V14.01,2013-02-27 03:34:00,
2013-02-26 21:40:00,28.2,25.7,29.43,NNE,18,15.4,17.0,90,0.00,,,0.00,VWS V14.01,2013-02-27 03:40:00,
2013-02-26 21:45:00,28.2,25.9,29.43,NE,52,12.3,14.5,91,0.00,,,0.00,VWS V14.01,2013-02-27 03:45:00,
2013-02-26 21:50:00,28.2,25.9,29.43,NE,37,12.8,17.9,91,0.00,,,0.00,VWS V14.01,2013-02-27 03:50:00,
2013-02-26 21:55:00,28.2,25.9,29.43,NNE,33,12.3,19.7,91,0.00,,,0.00,VWS V14.01,2013-02-27 03:55:00,
2013-02-26 22:01:00,28.2,25.9,29.43,NNE,24,10.1,12.8,91,0.00,,,0.00,VWS V14.01,2013-02-27 04:01:00,
2013-02-26 22:06:00,28.2,25.9,29.43,NNE,23,8.7,12.3,91,0.00,,,0.00,VWS V14.01,2013-02-27 04:06:00,
2013-02-26 22:12:00,28.0,25.8,29.43,NNE,28,10.5,14.5,91,0.00,,,0.00,VWS V14.01,2013-02-27 04:12:00,
2013-02-26 22:17:00,28.0,25.8,29.43,NNE,17,11.0,12.8,91,0.00,,,0.00,VWS V14.01,2013-02-27 04:17:00,
2013-02-26 22:23:00,28.0,25.5,29.43,NNE,14,8.3,12.8,90,0.00,,,0.00,VWS V14.01,2013-02-27 04:23:00,
2013-02-26 22:29:00,27.9,25.3,29.43,North,4,8.3,11.0,90,0.00,,,0.00,VWS V14.01,2013-02-27 04:29:00,
2013-02-26 22:34:00,27.9,25.0,29.43,North,11,8.7,13.2,89,0.00,,,0.00,VWS V14.01,2013-02-27 04:34:00,
2013-02-26 22:40:00,27.9,25.0,29.43,North,4,4.9,12.8,89,0.00,,,0.00,VWS V14.01,2013-02-27 04:40:00,
2013-02-26 22:46:00,27.9,24.8,29.43,NNE,19,9.6,14.5,88,0.00,,,0.00,VWS V14.01,2013-02-27 04:46:00,
2013-02-26 22:51:00,27.9,24.8,29.43,North,3,7.6,13.2,88,0.00,,,0.00,VWS V14.01,2013-02-27 04:51:00,
2013-02-26 22:57:00,27.9,24.5,29.43,NNE,16,12.3,15.0,87,0.00,,,0.00,VWS V14.01,2013-02-27 04:57:00,
2013-02-26 23:00:00,27.9,24.5,29.43,North,353,8.1,14.5,87,0.00,,,0.00,VWS V14.01,2013-02-27 05:00:00,
2013-02-26 23:01:00,27.9,24.5,29.43,NNE,16,9.6,11.0,87,0.00,,,0.00,VWS V14.01,2013-02-27 05:01:00,
2013-02-26 23:02:00,27.9,24.5,29.43,North,1,7.6,10.5,87,0.00,,,0.00,VWS V14.01,2013-02-27 05:02:00,
2013-02-26 23:08:00,27.9,24.2,29.43,NNE,21,8.3,15.0,86,0.00,,,0.00,VWS V14.01,2013-02-27 05:08:00,
2013-02-26 23:13:00,27.9,24.0,29.40,North,10,12.8,13.2,85,0.00,,,0.00,VWS V14.01,2013-02-27 05:13:00,
2013-02-26 23:19:00,27.9,23.7,29.40,NNE,16,12.8,17.4,84,0.00,,,0.00,VWS V14.01,2013-02-27 05:19:00,
2013-02-26 23:24:00,27.9,23.4,29.40,North,1,17.4,21.0,83,0.00,,,0.00,VWS V14.01,2013-02-27 05:24:00,
2013-02-26 23:29:00,28.0,23.5,29.40,NNE,18,7.2,15.0,83,0.00,,,0.00,VWS V14.01,2013-02-27 05:29:00,
2013-02-26 23:30:00,28.0,23.5,29.40,NNE,17,8.7,12.8,83,0.00,,,0.00,VWS V14.01,2013-02-27 05:30:00,
2013-02-26 23:36:00,28.0,23.8,29.40,North,7,12.3,14.1,84,0.00,,,0.00,VWS V14.01,2013-02-27 05:36:00,
2013-02-26 23:41:00,27.9,23.7,29.40,North,8,10.5,13.6,84,0.00,,,0.00,VWS V14.01,2013-02-27 05:41:00,
2013-02-26 23:46:00,28.0,23.8,29.40,North,357,13.2,13.2,84,0.00,,,0.00,VWS V14.01,2013-02-27 05:46:00,
2013-02-26 23:51:00,27.9,23.7,29.40,NNE,31,10.5,17.4,84,0.00,,,0.00,VWS V14.01,2013-02-27 05:51:00,
2013-02-26 23:57:00,27.9,23.7,29.40,North,11,12.8,17.0,84,0.00,,,0.00,VWS V14.01,2013-02-27 05:57:00,